Location: Austin
(30.3000°N, 97.7500°W)
Time: 22:45:38
(UTC-06:00)

Cosmos 2228 - Pass Details

Date: 03 December 2025
Orbit: 566 x 588 km, 82.5° (Epoch: 07 December)

Event Time Altitude Azimuth Distance (km) Brightness Sun altitude
Exits shadow 05:48:23 37° 276° (W) 914 3.4 -17.7°
Maximum altitude 05:48:36 37° 268° (W) 909 3.4 -17.6°
Drops below altitude 10° 05:52:27 10° 201° (SSW) 1,884 5.5 -16.8°
Sets 05:54:43 0° 193° (SSW) 2,774 6.5 -16.4°
